This is the latest recevied weather packets stored in our database for station/object K5NCO. If no packets are shown the sender has not sent any weather packets the latest 1 day(s).
| Time | Temp. | Humidity | Pressure | Rain* | Wind** | Luminosity | Snow |
|---|---|---|---|---|---|---|---|
| 1778038659 | 25° C | 89% | 1009.4 hPa | 0 mm | - | 0 W/m² | - |
| 1778038356 | 25° C | 89% | 1009.4 hPa | 0 mm | - | 0 W/m² | - |
| 1778038053 | 25° C | 89% | 1009.4 hPa | 0 mm | - | 0 W/m² | - |
| 1778037749 | 25° C | 89% | 1009.3 hPa | 0 mm | - | 0 W/m² | - |
| 1778037144 | 25° C | 88% | 1009.3 hPa | 0 mm | - | 0 W/m² | - |
| 1778036236 | 25.56° C | 87% | 1009.1 hPa | 0 mm | - | 0 W/m² | - |
| 1778035022 | 25.56° C | 85% | 1008.7 hPa | 0 mm | - | 0 W/m² | - |
| 1778034720 | 26.11° C | 84% | 1008.5 hPa | 0 mm | - | 0 W/m² | - |
| 1778034114 | 26.11° C | 83% | 1008.2 hPa | 0 mm | - | 0 W/m² | - |
| 1778033812 | 26.11° C | 83% | 1008.2 hPa | 0 mm | - | 0 W/m² | - |
| 1778033508 | 26.11° C | 83% | 1008.3 hPa | 0 mm | - | 0 W/m² | - |
| 1778033200 | 26.11° C | 82% | 1008.1 hPa | 0 mm | - | 0 W/m² | - |
| 1778032595 | 26.67° C | 82% | 1007.9 hPa | 0 mm | - | 0 W/m² | - |
| 1778032292 | 26.67° C | 82% | 1007.8 hPa | 0 mm | - | 0 W/m² | - |
| 1778031990 | 26.67° C | 82% | 1007.8 hPa | 0 mm | - | 0 W/m² | - |
| 1778031685 | 26.67° C | 82% | 1007.8 hPa | 0 mm | - | 0 W/m² | - |
| 1778031079 | 26.67° C | 81% | 1007.8 hPa | 0 mm | - | 0 W/m² | - |
| 1778030775 | 26.67° C | 80% | 1007.8 hPa | 0 mm | - | 0 W/m² | - |
| 1778030170 | 26.67° C | 80% | 1007.6 hPa | 0 mm | - | 1 W/m² | - |
| 1778029866 | 27.22° C | 79% | 1007.7 hPa | 0 mm | - | 2 W/m² | - |
| 1778029560 | 27.22° C | 79% | 1007.9 hPa | 0 mm | - | 4 W/m² | - |
| 1778028954 | 27.22° C | 79% | 1007.8 hPa | 0 mm | - | 12 W/m² | - |
| 1778028347 | 27.22° C | 78% | 1007.5 hPa | 0 mm | - | 25 W/m² | - |
| 1778027740 | 27.78° C | 77% | 1007.7 hPa | 0 mm | - | 43 W/m² | - |
| 1778027436 | 27.78° C | 77% | 1007.6 hPa | 0 mm | - | 37 W/m² | - |
* Rain latest hour (hover to see other rain measurements)
** Current wind speed in m/s (hover to see current wind gust speed)